| time (UTC) | temp F | wind direction | speed knots | gust knots | rain 1hr in | rain 24hr in | rain mn in | humidity % | barometer mb |
| 20260503214529 | 85 | 157 | 0.9 | 3.5 | 0.00 | 0.00 | 0.00 | 25 | 1014.2 |
| 20260503213030 | 84 | 152 | 1.7 | 6.1 | 0.00 | 0.00 | 0.00 | 26 | 1014.4 |
| 20260503210105 | 85 | 155 | 0.9 | 3.5 | 0.00 | 0.00 | 0.00 | 27 | 1014.8 |
| 20260503204529 | 84 | 136 | 1.7 | 4.3 | 0.00 | 0.00 | 0.00 | 28 | 1015.0 |
| 20260503203031 | 83 | 158 | 0.9 | 4.3 | 0.00 | 0.00 | 0.00 | 30 | 1015.2 |
| 20260503201530 | 83 | 165 | 1.7 | 5.2 | 0.00 | 0.00 | 0.00 | 31 | 1015.4 |
| 20260503200032 | 84 | 153 | 0.9 | 6.1 | 0.00 | 0.00 | 0.00 | 30 | 1015.5 |
| 20260503193031 | 83 | 163 | 0.9 | 3.5 | 0.00 | 0.00 | 0.00 | 32 | 1015.9 |
| 20260503191530 | 83 | 165 | 0.9 | 5.2 | 0.00 | 0.00 | 0.00 | 31 | 1016.1 |
| 20260503190030 | 83 | 151 | 0.9 | 2.6 | 0.00 | 0.00 | 0.00 | 31 | 1016.2 |
| 20260503184605 | 83 | 142 | 0.9 | 3.5 | 0.00 | 0.00 | 0.00 | 32 | 1016.3 |
| 20260503183029 | 82 | 73 | 0.0 | 3.5 | 0.00 | 0.00 | 0.00 | 36 | 1016.4 |
| 20260503180031 | 82 | 42 | 0.0 | 2.6 | 0.00 | 0.00 | 0.00 | 36 | 1016.7 |
| 20260503174530 | 81 | 65 | 0.0 | 0.9 | 0.00 | 0.00 | 0.00 | 37 | 1016.8 |
| 20260503173040 | 78 | 67 | 0.0 | 0.9 | 0.00 | 0.00 | 0.00 | 43 | 1016.9 |
| 20260503171606 | 78 | 71 | 0.0 | 0.9 | 0.00 | 0.00 | 0.00 | 44 | 1016.9 |
| 20260503120105 | 52 | 236 | 1.7 | 3.5 | 0.00 | 0.00 | 0.00 | 73 | 1016.9 |
| 20260503081606 | 56 | 225 | 1.7 | 3.5 | 0.00 | 0.00 | 0.00 | 68 | 1016.6 |
| 20260503080104 | 57 | 230 | 1.7 | 3.5 | 0.00 | 0.00 | 0.00 | 68 | 1016.5 |
| 20260503071531 | 58 | 225 | 0.9 | 2.6 | 0.00 | 0.00 | 0.00 | 66 | 1016.6 |
| 20260503053028 | 62 | 225 | 0.0 | 1.7 | 0.00 | 0.00 | 0.00 | 57 | 1016.5 |
| 20260503050033 | 64 | 225 | 1.7 | 4.3 | 0.00 | 0.00 | 0.00 | 49 | 1016.4 |
| 20260503044530 | 65 | 248 | 0.9 | 3.5 | 0.00 | 0.00 | 0.00 | 48 | 1016.3 |
| 20260503043033 | 66 | 256 | 1.7 | 3.5 | 0.00 | 0.00 | 0.00 | 46 | 1016.3 |
| 20260503041529 | 65 | 300 | 1.7 | 5.2 | 0.00 | 0.00 | 0.00 | 51 | 1016.3 |
| 20260503040039 | 64 | 241 | 0.9 | 2.6 | 0.00 | 0.00 | 0.00 | 54 | 1016.2 |
| 20260503034528 | 66 | 230 | 0.9 | 3.5 | 0.00 | 0.00 | 0.00 | 51 | 1016.0 |
| 20260503033031 | 67 | 274 | 1.7 | 5.2 | 0.00 | 0.00 | 0.00 | 53 | 1015.7 |
| 20260503031529 | 67 | 176 | 0.9 | 2.6 | 0.00 | 0.00 | 0.00 | 57 | 1015.2 |
| 20260503030032 | 67 | 135 | 0.0 | 0.0 | 0.00 | 0.00 | 0.00 | 58 | 1014.8 |
| 20260503024528 | 68 | 135 | 0.0 | 0.0 | 0.00 | 0.00 | 0.00 | 59 | 1014.5 |
| 20260503023027 | 70 | 135 | 0.0 | 0.0 | 0.00 | 0.00 | 0.00 | 58 | 1014.4 |
| 20260503014529 | 79 | 135 | 0.0 | 0.0 | 0.00 | 0.00 | 0.00 | 40 | 1014.1 |
| 20260503013108 | 81 | 135 | 0.0 | 0.0 | 0.00 | 0.00 | 0.00 | 35 | 1014.0 |
| 20260503011532 | 83 | 145 | 0.0 | 0.9 | 0.00 | 0.00 | 0.00 | 31 | 1013.9 |
| 20260503000031 | 84 | 118 | 1.7 | 6.1 | 0.00 | 0.00 | 0.00 | 31 | 1014.2 |
| 20260502234645 | 84 | 126 | 1.7 | 4.3 | 0.00 | 0.00 | 0.00 | 32 | 1014.4 |
| 20260502233033 | 83 | 114 | 0.9 | 4.3 | 0.00 | 0.00 | 0.00 | 34 | 1014.5 |
| 20260502230031 | 83 | 130 | 0.9 | 3.5 | 0.00 | 0.00 | 0.00 | 33 | 1014.9 |
| 20260502224603 | 84 | 89 | 0.9 | 3.5 | 0.00 | 0.00 | 0.00 | 34 | 1015.2 |
| 20260502223107 | 83 | 109 | 0.9 | 2.6 | 0.00 | 0.00 | 0.00 | 34 | 1015.4 |
| 20260502221527 | 83 | 78 | 0.9 | 3.5 | 0.00 | 0.00 | 0.00 | 35 | 1015.6 |
| 20260502220036 | 82 | 77 | 0.9 | 2.6 | 0.00 | 0.00 | 0.00 | 37 | 1015.8 |